Weather in Stepanovo

Russia / Udmurt Republic     57°01′21″N   54°21′59″E
temp.,
°C
wind,
m/s
gust,
m/s
humid.,
%
clouds,
%
prec.,
mm/h
press.,
hPa
HPBL,
m
24 may, tue
tue2401:00+2s249124 0.0 100267
04:00+1s2293100 0.0 100331
07:00+5sw3781100 0.0 1004659
10:00+7ssw4765100 0.1 10051429
13:00+11wsw474289 0.1 10062194
16:00+12ssw474588 0.1 10071964
19:00+10sw3766100 0.1 1008512
22:00+5se1185100 0.1 100910
25 may, wed
wed2501:00+4ene228799 0.0 100912
04:00+4ene1186100 0.0 100810
07:00+9e1275100 0.0 1007211
10:00+13nne2253100 0.0 10061388
13:00+13ene3256100 0.1 10061034
16:00+14e3358100 0.3 10051111
19:00+11e2476100 0.3 1005476
22:00+9se2696100 1.1 1005265
26 may, thu
thu2601:00+6w4895100 2.6 1006409
04:00+6sw1496100 2.6 1006203
07:00+5w4895100 0.6 1007773
10:00+9wsw477083 0.9 10081368
13:00+11w6755100 0.3 10091759
16:00+10sw586449 0.4 10111211
19:00+9sw597765 0.7 1011851
22:00+6ssw3993100 1.0 1011298
27 may, fri
fri2701:00+5ssw310945 0.0 1011324
04:00+6s31090100 0.0 1010351
07:00+7s4108498 0.1 1010430
10:00+12ssw71462100 0.1 10081323
13:00+12s61466100 0.0 10081212
16:00+13s71666100 0.1 10061723
19:00+11s71591100 1.3 10061190
22:00+11ssw51195100 2.3 1005770
28 may, sat
sat2801:00+10s41097100 0.2 1005580
04:00+10ssw4996100 0.9 1006679
07:00+11ssw4894100 0.1 1007506
10:00+10sw4789100 0.1 1010785
13:00+16sw585786 0.0 10111568
16:00+18sw5105258 0.0 10101855
19:00+17s51263100 0.0 10091273
22:00+16ssw71675100 0.0 10091141